Skip Page Navigation
NASA JPL Caltech
NASA Logo - Jet Propulsion Laboratory + View the NASA Portal
+ Center for Near-Earth Object Studies
JPL Home Earth Solar System Stars & Galaxies Technology
JPL Solar System Dynamics
BODIES ORBITS EPHEMERIDES TOOLS PHYSICAL DATA DISCOVERY FAQ SITE MAP
IMPORTANT: The SSD Announcement email list is now available. Major changes are coming in the near future, including possible hostname and/or URL changes. To be notified of such changes, subscribe to this email list.

Please visit this page for more details.


JPL Small-Body Database Browser
Search: [ help ]  
410255 (2007 TV111)
Classification: Main-belt Asteroid          SPK-ID: 2410255
Ephemeris | Orbit Diagram | Orbital Elements | Mission Design | Physical Parameters | Discovery Circumstances ]

[ show orbit diagram ]
Orbital Elements at Epoch 2458600.5 (2019-Apr-27.0) TDB
Reference: JPL 18 (heliocentric ecliptic J2000)
 Element Value Uncertainty (1-sigma)   Units 
e .1122847566846318 7.5633e-08  
a 2.297674363063805 2.578e-08 au
q 2.039680556266669 1.8247e-07 au
i 4.145151812594015 5.2205e-06 deg
node 255.511641099438 0.0001056 deg
peri 71.90758112750775 0.00010948 deg
M 155.9685798440662 3.0647e-05 deg
tp 2458049.355139879590
(2017-Oct-22.85513988)
0.0001064 TDB
period 1272.128975218697
3.48
2.141e-05
5.862e-08
d
yr
n .2829901739625975 4.7627e-09 deg/d
Q 2.555668169860942 2.8674e-08 au
  Orbit Determination Parameters
   # obs. used (total)      198  
   data-arc span      6150 days (16.84 yr)  
   first obs. used      2002-02-13  
   last obs. used      2018-12-16  
   planetary ephem.      DE431  
   SB-pert. ephem.      SB431-N16  
   condition code      0  
   norm. resid. RMS      .65694  
   source      ORB  
   producer      Otto Matic  
   solution date      2019-Jul-14 15:21:14  

Additional Information
 Earth MOID = 1.03168 au 
 Jupiter MOID = 2.71867 au 
 T_jup = 3.582 
[ show covariance matrix ]

Ephemeris | Orbit Diagram | Orbital Elements | Mission Design | Physical Parameters | Discovery Circumstances ]

Physical Parameter Table
Parameter Symbol Value Units Sigma Reference Notes
absolute magnitude H 17.0   n/a MPO413448  

410255 (2007 TV111)          Discovered 2007-Oct-08 by CSS at Catalina
Reference: Last Updated: 2014-10-09
Ephemeris | Orbit Diagram | Orbital Elements | Mission Design | Physical Parameters | Discovery Circumstances ]
ABOUT SSD CREDITS/AWARDS PRIVACY/COPYRIGHT GLOSSARY LINKS
FirstGov 2020-Jan-25 21:11 UT
(server date/time)  
NASA Home Page
Site Manager:   Ryan S. Park
Webmaster  Alan B. Chamberlin